Regional Weather Roundup
Issued by NWS

Home | Current Version | Previous Version | Graphics & Text | Print | Product List | Glossary On
Versions: 1 2 3 4 5 6 7 8 9 10 11 12 13 14 15 16 17 18 19 20 21 22 23 24 25 26 27 28 29 30 31 32 33 34 35 36 37 38 39 40 41 42 43 44 45 46 47 48 49 50
000
ASUS43 KBIS 260010
RWRND

NORTH DAKOTA REGIONAL WEATHER ROUNDUP
NATIONAL WEATHER SERVICE BISMARCK ND
700 PM CDT MON SEP 25 2017

NOTE: "FAIR" INDICATES FEW OR NO CLOUDS BELOW 12,000 FEET WITH NO
SIGNIFICANT WEATHER AND/OR OBSTRUCTIONS TO VISIBILITY.


NDZ001>003-009>011-017-260100-
NORTHWEST NORTH DAKOTA

CITY           SKY/WX    TMP DP  RH WIND       PRES   REMARKS
WILLISTON      LGT RAIN  48  46  93 SE5       30.13S
6HR MIN TEMP:  48; 6HR MAX TEMP:  54; 6HR PCP:  0.06;

MINOT          CLOUDY    53  43  68 NE5       30.13R
MINOT AFB      CLOUDY    52  42  69 E3        30.12R
$$

NDZ018>021-031>035-040>046-260100-
SOUTHWEST NORTH DAKOTA

CITY           SKY/WX    TMP DP  RH WIND       PRES   REMARKS
BISMARCK       CLOUDY    52  44  74 E9        30.13R
6HR MIN TEMP:  51; 6HR MAX TEMP:  54; 6HR PCP: TRACE;

DICKINSON      CLOUDY    47  43  86 CALM      30.10S
GARRISON         N/A     50  43  77 E6        30.13R
6HR MIN TEMP:  49; 6HR MAX TEMP:  51;

HETTINGER ARPT CLOUDY    49  40  71 E5        30.12F
$$

NDZ004>008-012>016-024-026-027-054-260100-
NORTHEAST NORTH DAKOTA

CITY           SKY/WX    TMP DP  RH WIND       PRES   REMARKS
GRAND FORKS    CLOUDY    52  48  86 N8        30.12S
GRND FRKS AFB  CLOUDY    51  46  81 N7        30.13R
DEVILS LAKE    CLOUDY    50  41  71 NE6       30.15R
$$

NDZ022-023-025-028>030-036>039-047>053-260100-
SOUTHEAST NORTH DAKOTA

CITY           SKY/WX    TMP DP  RH WIND       PRES   REMARKS
FARGO          CLOUDY    53  48  83 N10       30.09S
6HR MIN TEMP:  52; 6HR MAX TEMP:  53;

JAMESTOWN      CLOUDY    50  43  77 N7        30.13R
$$




USA.gov is the U.S. government's official web portal to all federal, state and local government web resources and services.